This is the latest recevied weather packets stored in our database for station/object KC3ROS. If no packets are shown the sender has not sent any weather packets the latest 1 day(s).
| Time | Temp. | Humidity | Pressure | Rain* | Wind** | Luminosity | Snow |
|---|---|---|---|---|---|---|---|
| 1778022543 | 20.56° C | 59% | 1006.5 hPa | 0 mm | 0 m/s | 21 W/m² | - |
| 1778022240 | 20.56° C | 59% | 1006.5 hPa | 0 mm | 0.45 m/s, 188° | 34 W/m² | - |
| 1778021937 | 20.56° C | 58% | 1006.4 hPa | 0 mm | 1.79 m/s, 222° | 60 W/m² | - |
| 1778021634 | 20.56° C | 59% | 1006.5 hPa | 0 mm | 0 m/s | 62 W/m² | - |
| 1778021329 | 20.56° C | 58% | 1006.5 hPa | 0 mm | 2.24 m/s, 245° | 54 W/m² | - |
| 1778021027 | 20.56° C | 59% | 1006.5 hPa | 0 mm | 1.34 m/s, 230° | 62 W/m² | - |
| 1778020724 | 20.56° C | 58% | 1006.6 hPa | 0 mm | 1.34 m/s, 268° | 76 W/m² | - |
| 1778020421 | 20.56° C | 59% | 1006.5 hPa | 0 mm | 0.89 m/s, 120° | 75 W/m² | - |
| 1778020116 | 20.56° C | 58% | 1006.5 hPa | 0 mm | 3.58 m/s, 218° | 70 W/m² | - |
| 1778019813 | 21.11° C | 58% | 1006.7 hPa | 0 mm | 0.45 m/s, 301° | 69 W/m² | - |
| 1778019510 | 21.11° C | 58% | 1006.6 hPa | 0 mm | 0.89 m/s, 230° | 76 W/m² | - |
| 1778019207 | 21.11° C | 58% | 1006.6 hPa | 0 mm | 1.79 m/s, 259° | 75 W/m² | - |
| 1778018904 | 21.11° C | 58% | 1006.6 hPa | 0 mm | 1.79 m/s, 220° | 73 W/m² | - |
| 1778018601 | 21.11° C | 58% | 1006.7 hPa | 0 mm | 1.79 m/s, 216° | 77 W/m² | - |
| 1778018299 | 21.11° C | 59% | 1006.8 hPa | 0 mm | 0 m/s | 78 W/m² | - |
| 1778017997 | 21.11° C | 58% | 1007 hPa | 0 mm | 3.13 m/s, 287° | 66 W/m² | - |
| 1778017694 | 21.11° C | 58% | 1006.9 hPa | 0 mm | 0.89 m/s, 250° | 72 W/m² | - |
| 1778017392 | 21.11° C | 57% | 1006.7 hPa | 0 mm | 0.89 m/s, 180° | 88 W/m² | - |
| 1778017088 | 21.11° C | 57% | 1006.9 hPa | 0 mm | 1.34 m/s, 193° | 121 W/m² | - |
| 1778016786 | 21.11° C | 57% | 1006.7 hPa | 0 mm | 1.34 m/s, 0° | 137 W/m² | - |
| 1778016482 | 21.11° C | 57% | 1006.6 hPa | 0 mm | 1.34 m/s, 222° | 160 W/m² | - |
| 1778016179 | 21.11° C | 56% | 1006.5 hPa | 0 mm | 2.68 m/s, 235° | 152 W/m² | - |
| 1778015875 | 21.11° C | 57% | 1006.4 hPa | 0 mm | 2.24 m/s, 169° | 134 W/m² | - |
| 1778015573 | 21.11° C | 57% | 1006.6 hPa | 0 mm | 0.89 m/s, 198° | 110 W/m² | - |
| 1778015269 | 21.11° C | 57% | 1006.6 hPa | 0 mm | 1.34 m/s, 225° | 111 W/m² | - |
* Rain latest hour (hover to see other rain measurements)
** Current wind speed in m/s (hover to see current wind gust speed)